Kalispell, MT

11:21 PM MDT on October 20, 2017 (GMT -0600)
Glacier Park International

Weather History for KGPI - April, 2015

Change the Weather History Date:

Thursday, April 2, 2015

  Actual Average Record
Temperature  
Mean Temperature 35 °F 41 °F  
Max Temperature 46 °F 52 °F 72 °F (1990)
Min Temperature 24 °F 29 °F -5 °F (1936)
Degree Days  
Heating Degree Days 30 24  
Month to date heating degree days 55 49  
Since 1 July heating degree days 6300 6820  
Cooling Degree Days 0 0  
Month to date cooling degree days 0 0  
Year to date cooling degree days 0 0  
Moisture  
Dew Point 28 °F    
Average Humidity 75    
Maximum Humidity 100    
Minimum Humidity 49    
Precipitation  
Precipitation T in 0.03 in 0.31 in (1983)
Month to date precipitation T 0.07  
Year to date precipitation 5.19 3.46  
Snow  
Snow T in - - ()
Month to date snowfall T  
Year to date snowfall 32.9  
Since 1 July snowfall 59.4  
Snow Depth 0.00 in    
Sea Level Pressure  
Sea Level Pressure 30.23 in    
Wind  
Wind Speed 6 mph (SSW)    
Max Wind Speed 21 mph    
Max Gust Speed 26 mph    
Visibility 10 miles    
Events Rain , Snow    
T = Trace of Precipitation, MM = Missing Value Source: NWS Daily Summary

Daily Weather History Graph

Daily Weather History Graph

Search for Another Location

Airport or City:

Trip Planner

Search our weather history database for the weather conditions in past years. The results will help you decide how hot, cold, wet, or windy it might be!

Date:

Astronomy

Apr. 02, 2015 Rise Set
Actual Time 7:13 AM MDT 8:08 PM MDT
Civil Twilight 6:41 AM MDT 8:40 PM MDT
Nautical Twilight 6:03 AM MDT 9:18 PM MDT
Astronomical Twilight 5:23 AM MDT 9:58 PM MDT
Moon 6:39 PM MDT (4/2) 6:26 AM MDT (4/2)
Length of Visible Light 13h 58m
Length of Day
12h 55m
Waxing Gibbous, 97% of the Moon is Illuminated
Apr 2
Waxing Gibbous
Apr 4
Full
Apr 11
Last Quarter
Apr 18
New
Apr 25
First Quarter

Hourly Weather History & Observations

Time (MDT) Temp. Windchill Dew Point Humidity Pressure Visibility Wind Dir Wind Speed Gust Speed Precip Events Conditions
12:55 AM 30.0 °F 26.5 °F 26.1 °F 85% 30.12 in 10.0 mi WSW 3.5 mph - N/A   Overcast
1:55 AM 32.0 °F 27.5 °F 27.0 °F 82% 30.12 in 10.0 mi South 4.6 mph - N/A   Overcast
2:55 AM 30.9 °F 26.2 °F 26.1 °F 82% 30.13 in 10.0 mi SSW 4.6 mph - N/A   Mostly Cloudy
3:55 AM 30.0 °F 26.5 °F 27.0 °F 88% 30.14 in 10.0 mi SW 3.5 mph - N/A   Overcast
4:55 AM 30.0 °F - 27.0 °F 88% 30.16 in 10.0 mi Calm Calm - N/A   Overcast
5:55 AM 28.9 °F - 26.1 °F 89% 30.17 in 10.0 mi Calm Calm - N/A   Overcast
6:55 AM 28.0 °F - 27.0 °F 96% 30.20 in 10.0 mi Calm Calm - N/A   Overcast
7:55 AM 28.9 °F - 27.0 °F 92% 30.22 in 10.0 mi Calm Calm - N/A   Overcast
8:55 AM 32.0 °F - 28.4 °F 87% 30.17 in 10.0 mi Calm Calm - N/A   Overcast
9:55 AM 37.0 °F - 28.0 °F 70% 30.25 in 9.0 mi Calm Calm - 0.00 in Snow Light Snow
10:55 AM 39.0 °F 34.0 °F 28.0 °F 65% 30.25 in 10.0 mi SSE 6.9 mph - 0.00 in   Overcast
11:55 AM 42.1 °F 38.4 °F 25.0 °F 51% 30.25 in 10.0 mi Variable 5.8 mph - N/A   Mostly Cloudy
12:55 PM 36.0 °F 27.5 °F 28.9 °F 76% 30.26 in 6.0 mi West 12.7 mph - 0.00 in Snow Light Snow
1:55 PM 41.0 °F 36.4 °F 28.0 °F 60% 30.25 in 10.0 mi West 6.9 mph - 0.00 in   Scattered Clouds
2:55 PM 44.1 °F 40.1 °F 26.1 °F 49% 30.24 in 10.0 mi Variable 6.9 mph - N/A   Scattered Clouds
3:55 PM 41.0 °F 34.7 °F 28.9 °F 62% 30.25 in 10.0 mi South 10.4 mph - 0.00 in   Overcast
4:55 PM 41.0 °F 33.5 °F 30.0 °F 65% 30.26 in 10.0 mi South 13.8 mph - 0.00 in   Partly Cloudy
5:55 PM 41.0 °F 32.2 °F 30.9 °F 67% 30.25 in 10.0 mi SSE 18.4 mph - N/A   Mostly Cloudy
6:55 PM 39.9 °F 33.9 °F 32.0 °F 73% 30.28 in 10.0 mi South 9.2 mph - 0.00 in Rain Light Rain
7:55 PM 37.0 °F 29.8 °F 30.9 °F 79% 30.29 in 10.0 mi SSE 10.4 mph - 0.00 in   Scattered Clouds
8:55 PM 35.1 °F 29.3 °F 30.0 °F 82% 30.29 in 10.0 mi South 6.9 mph - N/A   Scattered Clouds
9:55 PM 32.0 °F 28.7 °F 28.0 °F 85% 30.30 in 10.0 mi South 3.5 mph - N/A   Partly Cloudy
10:55 PM 30.9 °F 27.5 °F 28.0 °F 89% 30.30 in 10.0 mi SW 3.5 mph - N/A   Clear
11:55 PM 27.0 °F - 26.1 °F 96% 30.32 in 10.0 mi Calm Calm - N/A   Clear